When you browse on this site, cookies collect data to enhance your experience and personalize the content and advertising you see.
Visit our Privacy Policy to learn more. By continuing to use the site, you agree to this use of cookies and data.

Meteo orario Nizhnee Isakovo

Oggi, 3 Luglio, Venerdi

Tempo Temperatura Precipitazioni Vento Pressione Umidità
00:00 +19°C° 0 mm 3 m/s 739 mm Hg 95%
01:00 +19°C° 0 mm 3 m/s 740 mm Hg 95%
02:00 +18°C° 0 mm 3 m/s 740 mm Hg 96%
03:00 +19°C° 0 mm 3 m/s 740 mm Hg 96%
04:00 +19°C° 0 mm 3 m/s 740 mm Hg 95%
05:00 +19°C° 0 mm 3 m/s 740 mm Hg 95%
06:00 +21°C° 0.1 mm 3 m/s 740 mm Hg 92%
07:00 +22°C° 0.1 mm 3 m/s 740 mm Hg 88%
08:00 +25°C° 0 mm 3 m/s 741 mm Hg 84%
09:00 +25°C° 0.9 mm 3 m/s 741 mm Hg 81%
10:00 +26°C° 0.9 mm 3 m/s 741 mm Hg 78%
11:00 +27°C° 0.9 mm 4 m/s 741 mm Hg 74%
12:00 +27°C° 1.2 mm 4 m/s 741 mm Hg 74%
13:00 +27°C° 1.2 mm 3 m/s 741 mm Hg 74%
14:00 +28°C° 0 mm 2 m/s 741 mm Hg 73%
15:00 +28°C° 1 mm 2 m/s 741 mm Hg 76%
16:00 +27°C° 1 mm 2 m/s 741 mm Hg 78%
17:00 +27°C° 1 mm 2 m/s 741 mm Hg 80%
18:00 +25°C° 0.5 mm 2 m/s 741 mm Hg 84%
19:00 +24°C° 0.5 mm 2 m/s 741 mm Hg 87%
20:00 +21°C° 0.5 mm 2 m/s 741 mm Hg 90%
21:00 +21°C° 0 mm 2 m/s 741 mm Hg 91%
22:00 +20°C° 0 mm 2 m/s 740 mm Hg 91%
23:00 +20°C° 0 mm 2 m/s 740 mm Hg 92%

Domani, 4 Luglio, Sabato

Tempo Temperatura Precipitazioni Vento Pressione Umidità
00:00 +19°C° 0 mm 2 m/s 740 mm Hg 92%
01:00 +19°C° 0 mm 2 m/s 740 mm Hg 92%
02:00 +19°C° 0 mm 2 m/s 740 mm Hg 93%
03:00 +19°C° 0 mm 2 m/s 740 mm Hg 92%
04:00 +19°C° 0 mm 3 m/s 740 mm Hg 92%
05:00 +19°C° 0 mm 3 m/s 740 mm Hg 92%
06:00 +21°C° 0 mm 3 m/s 740 mm Hg 88%
07:00 +22°C° 0 mm 3 m/s 740 mm Hg 84%
08:00 +25°C° 0 mm 3 m/s 740 mm Hg 80%
09:00 +26°C° 0.2 mm 3 m/s 740 mm Hg 76%
10:00 +27°C° 0.2 mm 3 m/s 740 mm Hg 72%
11:00 +28°C° 0.2 mm 3 m/s 740 mm Hg 68%
12:00 +28°C° 0.3 mm 3 m/s 740 mm Hg 68%
13:00 +28°C° 0.3 mm 3 m/s 740 mm Hg 69%
14:00 +28°C° 0.3 mm 3 m/s 740 mm Hg 69%
15:00 +27°C° 0.3 mm 3 m/s 740 mm Hg 74%
16:00 +27°C° 0.3 mm 2 m/s 740 mm Hg 78%
17:00 +26°C° 0.3 mm 2 m/s 739 mm Hg 82%
18:00 +25°C° 0.3 mm 2 m/s 739 mm Hg 84%
19:00 +24°C° 0.3 mm 1 m/s 740 mm Hg 85%
20:00 +23°C° 0.3 mm 1 m/s 740 mm Hg 86%
21:00 +22°C° 0 mm 1 m/s 740 mm Hg 88%
22:00 +22°C° 0 mm 1 m/s 740 mm Hg 90%
23:00 +20°C° 0 mm 2 m/s 740 mm Hg 92%

Dopodomani, 5 Luglio, Domenica

Tempo Temperatura Precipitazioni Vento Pressione Umidità
00:00 +21°C° 0.2 mm 1 m/s 740 mm Hg 93%
01:00 +21°C° 0.2 mm 1 m/s 740 mm Hg 94%
02:00 +21°C° 0.2 mm 1 m/s 740 mm Hg 95%
03:00 +20°C° 0.5 mm 1 m/s 740 mm Hg 95%
04:00 +20°C° 0.5 mm 1 m/s 740 mm Hg 96%
05:00 +20°C° 0.5 mm 1 m/s 740 mm Hg 96%
06:00 +21°C° 0.2 mm 1 m/s 740 mm Hg 93%
07:00 +22°C° 0.2 mm 1 m/s 740 mm Hg 89%
08:00 +23°C° 0.2 mm 1 m/s 740 mm Hg 86%
09:00 +24°C° 0.7 mm 1 m/s 740 mm Hg 84%
10:00 +25°C° 0.7 mm 1 m/s 740 mm Hg 81%
11:00 +25°C° 0.7 mm 1 m/s 740 mm Hg 79%
12:00 +25°C° 0.9 mm 1 m/s 740 mm Hg 79%
13:00 +25°C° 0.9 mm 2 m/s 739 mm Hg 79%
14:00 +25°C° 0.9 mm 2 m/s 739 mm Hg 79%
15:00 +25°C° 0.4 mm 2 m/s 739 mm Hg 81%
16:00 +24°C° 0.4 mm 2 m/s 739 mm Hg 83%
17:00 +24°C° 0.4 mm 2 m/s 739 mm Hg 84%
18:00 +23°C° 0.1 mm 2 m/s 739 mm Hg 87%
19:00 +21°C° 0.1 mm 2 m/s 739 mm Hg 90%
20:00 +20°C° 0.1 mm 2 m/s 739 mm Hg 92%
21:00 +20°C° 0 mm 2 m/s 739 mm Hg 92%
22:00 +19°C° 0 mm 2 m/s 739 mm Hg 93%
23:00 +19°C° 0 mm 2 m/s 739 mm Hg 93%

6 Luglio, Lunedi

Tempo Temperatura Precipitazioni Vento Pressione Umidità
00:00 +19°C° 0 mm 1 m/s 739 mm Hg 93%
01:00 +19°C° 0 mm 1 m/s 739 mm Hg 92%
02:00 +18°C° 0 mm 1 m/s 739 mm Hg 92%
03:00 +19°C° 0 mm 1 m/s 739 mm Hg 91%
04:00 +19°C° 0 mm 1 m/s 739 mm Hg 91%
05:00 +20°C° 0 mm 1 m/s 739 mm Hg 90%
06:00 +21°C° 0 mm 1 m/s 739 mm Hg 86%
07:00 +23°C° 0 mm 1 m/s 739 mm Hg 81%
08:00 +24°C° 0 mm 1 m/s 740 mm Hg 76%
09:00 +25°C° 0 mm 1 m/s 740 mm Hg 72%
10:00 +26°C° 0 mm 1 m/s 740 mm Hg 68%
11:00 +27°C° 0 mm 2 m/s 740 mm Hg 64%
12:00 +27°C° 0 mm 2 m/s 739 mm Hg 63%
13:00 +28°C° 0 mm 2 m/s 739 mm Hg 62%
14:00 +28°C° 0 mm 2 m/s 739 mm Hg 61%
15:00 +28°C° 0 mm 2 m/s 739 mm Hg 64%
16:00 +28°C° 0 mm 2 m/s 738 mm Hg 67%
17:00 +28°C° 0 mm 2 m/s 738 mm Hg 70%
18:00 +26°C° 0 mm 2 m/s 738 mm Hg 74%
19:00 +25°C° 0 mm 2 m/s 738 mm Hg 79%
20:00 +23°C° 0 mm 1 m/s 738 mm Hg 83%
21:00 +22°C° 0 mm 1 m/s 738 mm Hg 85%
22:00 +22°C° 0 mm 1 m/s 738 mm Hg 86%
23:00 +22°C° 0 mm 1 m/s 738 mm Hg 88%

7 Luglio, Martedi

Tempo Temperatura Precipitazioni Vento Pressione Umidità
00:00 +21°C° 0.3 mm 1 m/s 738 mm Hg 90%
01:00 +21°C° 0.3 mm 1 m/s 737 mm Hg 91%
02:00 +21°C° 0.3 mm 1 m/s 737 mm Hg 92%
03:00 +20°C° 0.1 mm 2 m/s 737 mm Hg 92%
04:00 +20°C° 0.1 mm 2 m/s 737 mm Hg 91%
05:00 +20°C° 0.1 mm 2 m/s 737 mm Hg 91%
06:00 +23°C° 0 mm 2 m/s 737 mm Hg 86%
07:00 +24°C° 0 mm 2 m/s 737 mm Hg 81%
08:00 +26°C° 0 mm 2 m/s 737 mm Hg 76%
09:00 +27°C° 0 mm 2 m/s 737 mm Hg 72%
10:00 +28°C° 0 mm 2 m/s 736 mm Hg 67%
11:00 +29°C° 0 mm 2 m/s 736 mm Hg 62%
12:00 +30°C° 0 mm 2 m/s 736 mm Hg 61%
13:00 +30°C° 0 mm 2 m/s 736 mm Hg 60%
14:00 +31°C° 0 mm 2 m/s 736 mm Hg 58%
15:00 +30°C° 0.6 mm 2 m/s 736 mm Hg 65%
16:00 +28°C° 0.6 mm 2 m/s 736 mm Hg 72%
17:00 +27°C° 0.6 mm 1 m/s 736 mm Hg 79%
18:00 +26°C° 0.4 mm 2 m/s 736 mm Hg 81%
19:00 +25°C° 0.4 mm 2 m/s 736 mm Hg 83%
20:00 +24°C° 0.4 mm 2 m/s 736 mm Hg 86%
21:00 +23°C° 0.4 mm 2 m/s 736 mm Hg 89%
22:00 +21°C° 0.4 mm 3 m/s 736 mm Hg 92%
23:00 +20°C° 0.4 mm 3 m/s 736 mm Hg 95%

8 Luglio, Mercoledi

Tempo Temperatura Precipitazioni Vento Pressione Umidità
00:00 +20°C° 1.5 mm 3 m/s 736 mm Hg 96%
01:00 +19°C° 1.5 mm 4 m/s 736 mm Hg 97%
02:00 +19°C° 1.5 mm 4 m/s 736 mm Hg 97%
03:00 +18°C° 0.5 mm 4 m/s 736 mm Hg 96%
04:00 +18°C° 0.5 mm 4 m/s 736 mm Hg 96%
05:00 +18°C° 0.5 mm 4 m/s 736 mm Hg 95%
06:00 +18°C° 0.1 mm 4 m/s 736 mm Hg 93%
07:00 +18°C° 0.1 mm 4 m/s 736 mm Hg 91%
08:00 +19°C° 0.1 mm 4 m/s 736 mm Hg 89%
09:00 +20°C° 0 mm 4 m/s 737 mm Hg 84%
10:00 +21°C° 0 mm 4 m/s 737 mm Hg 79%
11:00 +22°C° 0 mm 5 m/s 737 mm Hg 74%
12:00 +22°C° 0 mm 4 m/s 738 mm Hg 72%
13:00 +23°C° 0 mm 4 m/s 738 mm Hg 70%
14:00 +23°C° 0 mm 4 m/s 738 mm Hg 67%
15:00 +23°C° 0 mm 4 m/s 738 mm Hg 69%
16:00 +23°C° 0 mm 4 m/s 738 mm Hg 71%
17:00 +22°C° 0 mm 3 m/s 738 mm Hg 73%
18:00 +21°C° 0 mm 3 m/s 738 mm Hg 74%
19:00 +19°C° 0 mm 4 m/s 738 mm Hg 76%
20:00 +18°C° 0 mm 4 m/s 739 mm Hg 78%
21:00 +17°C° 0 mm 4 m/s 739 mm Hg 76%
22:00 +15°C° 0 mm 4 m/s 739 mm Hg 74%
23:00 +14°C° 0 mm 4 m/s 739 mm Hg 73%
Mostrare altro